GW3962 Weather Reports


Display with metric or nautical units.
time (UTC)temp
F
wind
direction
speed
MPH
gust
MPH
rain 1hr
in
rain 24hr
in
rain mn
in
humidity
%
barometer
mb
20260504090111 61 216 7.0 10.0 0.00 0.00 0.00 80 1015.5
20260504081541 62 206 8.0 10.0 0.00 0.00 0.00 78 1015.4
20260504081037 62 193 10.0 14.0 0.00 0.00 0.00 78 1015.7
20260504080533 62 207 8.0 10.0 0.00 0.00 0.00 78 1015.7
20260504050340 65 194 8.0 9.0 0.00 0.00 0.00 65 1017.9
20260504045838 65 196 9.0 10.0 0.00 0.00 0.00 64 1017.7
20260504045332 65 209 7.0 8.0 0.00 0.00 0.00 63 1017.7
20260504044829 65 208 8.0 10.0 0.00 0.00 0.00 63 1017.6
20260504044327 66 176 8.0 9.0 0.00 0.00 0.00 62 1017.9
20260504043824 66 193 8.0 9.0 0.00 0.00 0.00 61 1017.9
20260504043321 66 208 7.0 8.0 0.00 0.00 0.00 60 1017.8
20260504042818 66 187 10.0 13.0 0.00 0.00 0.00 59 1018.0
20260504042314 66 189 12.0 15.0 0.00 0.00 0.00 58 1018.0
20260504041811 66 175 8.0 11.0 0.00 0.00 0.00 56 1017.9
20260504041307 67 222 6.0 7.0 0.00 0.00 0.00 55 1018.1
20260504040804 67 199 7.0 8.0 0.00 0.00 0.00 54 1018.1
20260504040301 66 210 7.0 9.0 0.00 0.00 0.00 53 1018.2
20260504035757 66 200 7.0 8.0 0.00 0.00 0.00 53 1018.2
20260504035254 67 229 3.0 3.0 0.00 0.00 0.00 53 1018.0
20260504034751 67 238 5.0 6.0 0.00 0.00 0.00 52 1018.1
20260504034249 67 204 5.0 6.0 0.00 0.00 0.00 52 1018.0
20260504033746 67 203 5.0 7.0 0.00 0.00 0.00 52 1017.8
20260504033244 67 212 3.0 5.0 0.00 0.00 0.00 52 1017.9
20260504032740 67 234 5.0 6.0 0.00 0.00 0.00 52 1018.0
20260504032237 67 207 4.0 6.0 0.00 0.00 0.00 52 1017.7
20260504031734 67 207 5.0 6.0 0.00 0.00 0.00 51 1017.9
20260504031232 67 219 6.0 7.0 0.00 0.00 0.00 51 1018.0
20260504030727 68 206 4.0 6.0 0.00 0.00 0.00 52 1018.2
20260504030225 68 186 6.0 8.0 0.00 0.00 0.00 51 1018.1
20260504025721 68 208 7.0 8.0 0.00 0.00 0.00 51 1018.1
20260504025218 68 195 6.0 7.0 0.00 0.00 0.00 51 1017.9
20260504024715 68 203 6.0 7.0 0.00 0.00 0.00 51 1017.7
20260504024211 68 195 7.0 8.0 0.00 0.00 0.00 51 1017.9
20260504023708 69 201 7.0 8.0 0.00 0.00 0.00 50 1018.1
20260504023204 69 218 5.0 6.0 0.00 0.00 0.00 51 1017.9
20260504022701 69 157 5.0 6.0 0.00 0.00 0.00 50 1017.9
20260504022156 69 193 7.0 8.0 0.00 0.00 0.00 50 1017.9
20260504021655 69 174 5.0 7.0 0.00 0.00 0.00 50 1017.9
20260504021151 69 186 6.0 7.0 0.00 0.00 0.00 49 1017.8
20260504020648 69 202 7.0 7.0 0.00 0.00 0.00 49 1017.8
20260504020144 70 201 5.0 7.0 0.00 0.00 0.00 48 1018.1
20260504015641 70 189 5.0 6.0 0.00 0.00 0.00 48 1017.8
20260504015137 70 209 5.0 6.0 0.00 0.00 0.00 48 1017.8
20260504014633 70 193 6.0 7.0 0.00 0.00 0.00 47 1017.6
20260504014130 70 205 4.0 5.0 0.00 0.00 0.00 47 1017.5
20260504013628 71 215 3.0 5.0 0.00 0.00 0.00 46 1017.5
20260504013125 71 213 6.0 8.0 0.00 0.00 0.00 46 1017.3
20260504012622 71 216 5.0 7.0 0.00 0.00 0.00 45 1017.3
20260504012120 71 199 6.0 7.0 0.00 0.00 0.00 45 1017.4
20260504011616 71 204 6.0 8.0 0.00 0.00 0.00 44 1017.4
20260504011113 71 180 7.0 9.0 0.00 0.00 0.00 44 1017.4
20260504010608 72 218 4.0 5.0 0.00 0.00 0.00 45 1017.4
20260504010105 72 229 5.0 6.0 0.00 0.00 0.00 43 1017.4
20260504005602 72 206 5.0 6.0 0.00 0.00 0.00 43 1017.6
20260504005059 72 178 4.0 5.0 0.00 0.00 0.00 43 1017.3
20260504004556 72 168 6.0 7.0 0.00 0.00 0.00 43 1017.3
20260504004054 73 196 7.0 9.0 0.00 0.00 0.00 42 1017.5
20260504003549 73 208 7.0 9.0 0.00 0.00 0.00 42 1017.5
20260504003046 73 216 7.0 8.0 0.00 0.00 0.00 42 1017.5
20260504002543 73 215 9.0 9.0 0.00 0.00 0.00 42 1017.7
20260504002041 74 199 11.0 13.0 0.00 0.00 0.00 41 1017.5
20260504001538 74 219 5.0 7.0 0.00 0.00 0.00 41 1017.5
20260504001034 74 228 8.0 9.0 0.00 0.00 0.00 41 1017.7
20260504000532 74 136 6.0 8.0 0.00 0.00 0.00 42 1017.8
20260504000029 74 218 9.0 10.0 0.00 0.00 0.00 41 1017.7
20260503235527 74 187 9.0 13.0 0.00 0.00 0.00 40 1017.9
20260503235024 74 203 8.0 8.0 0.00 0.00 0.00 41 1018.0
20260503234521 74 195 9.0 10.0 0.00 0.00 0.00 41 1017.9
20260503234020 75 173 5.0 7.0 0.00 0.00 0.00 39 1018.0
20260503233515 75 164 7.0 9.0 0.00 0.00 0.00 38 1017.9
20260503233011 75 171 9.0 13.0 0.00 0.00 0.00 38 1018.0
20260503232509 75 196 7.0 9.0 0.00 0.00 0.00 38 1018.0
20260503232006 75 215 8.0 10.0 0.00 0.00 0.00 38 1018.1
20260503231504 75 220 3.0 3.0 0.00 0.00 0.00 40 1018.0
20260503231000 75 224 5.0 7.0 0.00 0.00 0.00 38 1018.1
20260503230457 75 237 8.0 9.0 0.00 0.00 0.00 38 1018.0
20260503225954 75 208 8.0 10.0 0.00 0.00 0.00 39 1018.0
20260503225451 76 209 7.0 8.0 0.00 0.00 0.00 38 1017.8
20260503224946 76 203 7.0 7.0 0.00 0.00 0.00 38 1018.0
20260503224444 76 185 10.0 11.0 0.00 0.00 0.00 36 1018.0
20260503223942 77 220 11.0 16.0 0.00 0.00 0.00 36 1018.0
20260503223439 77 176 10.0 11.0 0.00 0.00 0.00 36 1018.3
20260503222934 77 201 3.0 5.0 0.00 0.00 0.00 36 1018.2
20260503222433 77 277 6.0 8.0 0.00 0.00 0.00 36 1018.6
20260503221931 77 199 5.0 9.0 0.00 0.00 0.00 37 1018.4
20260503221429 77 190 9.0 10.0 0.00 0.00 0.00 36 1018.4
20260503220926 77 204 7.0 8.0 0.00 0.00 0.00 37 1018.4
20260503220422 77 254 6.0 8.0 0.00 0.00 0.00 35 1018.6
20260503215919 77 165 6.0 8.0 0.00 0.00 0.00 35 1018.7
20260503215416 77 212 7.0 8.0 0.00 0.00 0.00 35 1018.7
20260503214914 77 128 10.0 11.0 0.00 0.00 0.00 36 1018.5
20260503214411 77 224 9.0 10.0 0.00 0.00 0.00 37 1018.8
20260503213908 78 217 6.0 8.0 0.00 0.00 0.00 37 1018.7
20260503213406 77 223 8.0 10.0 0.00 0.00 0.00 37 1019.2
20260503212902 78 203 9.0 13.0 0.00 0.00 0.00 35 1019.2
20260503212400 77 228 8.0 9.0 0.00 0.00 0.00 37 1019.3
20260503211857 77 222 9.0 10.0 0.00 0.00 0.00 36 1019.0
20260503211354 78 227 9.0 11.0 0.00 0.00 0.00 36 1019.4
20260503210849 77 232 4.0 6.0 0.00 0.00 0.00 37 1019.5
20260503210347 76 216 11.0 14.0 0.00 0.00 0.00 36 1019.6
20260503205841 78 210 7.0 9.0 0.00 0.00 0.00 36 1020.0
20260503205339 78 235 5.0 6.0 0.00 0.00 0.00 35 1020.1
20260503204835 77 275 4.0 6.0 0.00 0.00 0.00 35 1019.9
20260503204332 78 169 10.0 11.0 0.00 0.00 0.00 33 1020.0
20260503203829 78 188 5.0 6.0 0.00 0.00 0.00 33 1019.9
20260503203327 78 116 8.0 11.0 0.00 0.00 0.00 33 1020.2
20260503202823 78 106 6.0 8.0 0.00 0.00 0.00 34 1020.0
20260503202322 77 168 6.0 7.0 0.00 0.00 0.00 32 1020.1
20260503201820 77 170 8.0 9.0 0.00 0.00 0.00 33 1020.5
20260503201316 77 189 7.0 11.0 0.00 0.00 0.00 35 1020.8
20260503200814 77 189 8.0 10.0 0.00 0.00 0.00 34 1020.6
20260503200310 77 168 4.0 6.0 0.00 0.00 0.00 33 1020.7
20260503195807 77 185 7.0 8.0 0.00 0.00 0.00 33 1020.7
20260503195304 77 170 5.0 6.0 0.00 0.00 0.00 35 1020.9
20260503194801 77 178 6.0 8.0 0.00 0.00 0.00 35 1020.8
20260503194256 77 220 5.0 7.0 0.00 0.00 0.00 36 1020.9
20260503193752 77 174 10.0 11.0 0.00 0.00 0.00 34 1020.8
20260503193248 77 224 7.0 9.0 0.00 0.00 0.00 35 1020.9
20260503192739 77 258 3.0 5.0 0.00 0.00 0.00 36 1021.1
20260503192234 77 189 6.0 8.0 0.00 0.00 0.00 35 1020.9
20260503191732 77 172 7.0 11.0 0.00 0.00 0.00 33 1021.2
20260503191229 77 239 7.0 8.0 0.00 0.00 0.00 35 1021.1
20260503190725 77 171 5.0 8.0 0.00 0.00 0.00 35 1020.9
20260503190222 76 203 10.0 10.0 0.00 0.00 0.00 34 1021.2
20260503185720 76 220 7.0 8.0 0.00 0.00 0.00 34 1021.5
20260503185215 76 176 7.0 9.0 0.00 0.00 0.00 35 1021.5
20260503184709 76 178 6.0 7.0 0.00 0.00 0.00 36 1021.7
20260503184206 77 190 6.0 8.0 0.00 0.00 0.00 34 1021.6
20260503183703 77 184 6.0 8.0 0.00 0.00 0.00 34 1021.8
20260503183200 76 195 10.0 14.0 0.00 0.00 0.00 34 1021.7
20260503182658 76 144 7.0 8.0 0.00 0.00 0.00 36 1022.0
20260503182156 77 194 9.0 11.0 0.00 0.00 0.00 34 1022.0
20260503181652 77 272 2.0 3.0 0.00 0.00 0.00 36 1022.1
20260503181149 77 278 6.0 9.0 0.00 0.00 0.00 37 1022.0
20260503180646 76 160 7.0 8.0 0.00 0.00 0.00 35 1022.5
20260503180144 75 273 3.0 3.0 0.00 0.00 0.00 38 1022.3
20260503175641 76 226 6.0 9.0 0.00 0.00 0.00 41 1022.5
20260503175138 75 175 6.0 7.0 0.00 0.00 0.00 37 1022.8
20260503174634 74 232 6.0 7.0 0.00 0.00 0.00 37 1022.8
20260503174132 75 230 10.0 10.0 0.00 0.00 0.00 40 1022.7
20260503173627 75 214 5.0 7.0 0.00 0.00 0.00 38 1022.8
20260503173124 75 225 8.0 10.0 0.00 0.00 0.00 42 1022.9
20260503172620 74 228 6.0 10.0 0.00 0.00 0.00 42 1022.7
20260503172118 74 194 6.0 9.0 0.00 0.00 0.00 40 1023.2
20260503171614 75 227 9.0 10.0 0.00 0.00 0.00 41 1023.1
20260503171112 74 209 8.0 11.0 0.00 0.00 0.00 43 1023.0
20260503170609 74 242 6.0 7.0 0.00 0.00 0.00 43 1023.2
20260503170105 74 243 4.0 6.0 0.00 0.00 0.00 47 1023.4
20260503151000 68 229 4.0 5.0 0.00 0.00 0.00 63 1023.7
20260503150457 69 268 5.0 6.0 0.00 0.00 0.00 62 1024.0
20260503131350 58 261 2.0 3.0 0.00 0.00 0.00 76 1023.2
20260503130847 58 271 2.0 2.0 0.00 0.00 0.00 77 1023.2
20260503130345 57 285 1.0 1.0 0.00 0.00 0.00 79 1023.3
20260503110744 55 288 1.0 1.0 0.00 0.00 0.00 80 1021.9
20260503110241 55 288 1.0 1.0 0.00 0.00 0.00 79 1022.1
20260503100207 56 293 1.0 1.0 0.00 0.00 0.00 77 1021.8